GW2523 Weather Reports


Display with metric or nautical units.
time (UTC)temp
F
wind
direction
speed
MPH
gust
MPH
rain 1hr
in
rain 24hr
in
rain mn
in
humidity
%
barometer
mb
20260507044538 43 35 9.0 15.0 0.00 0.43 0.00 83 1010.8
20260507043018 43 57 9.0 15.0 0.00 0.43 0.00 83 1010.5
20260507041517 43 22 5.0 12.0 0.00 0.43 0.00 83 1010.4
20260507040017 43 22 5.0 12.0 0.00 0.43 0.00 83 1010.2
20260507034514 43 51 5.0 10.0 0.00 0.44 0.00 83 1010.2
20260507033012 43 31 5.0 10.0 0.00 0.44 0.00 84 1010.0
20260507031508 43 5 5.0 9.0 0.00 0.44 0.00 84 1009.8
20260507030005 43 30 4.0 10.0 0.00 0.44 0.00 85 1009.8
20260507024502 43 36 5.0 9.0 0.00 0.44 0.00 86 1009.8
20260507023100 43 22 4.0 12.0 0.00 0.44 0.00 86 1009.7
20260507021616 43 38 9.0 16.0 0.00 0.44 0.00 85 1009.7
20260507020106 43 38 5.0 15.0 0.00 0.44 0.00 85 1009.7
20260507014613 43 42 9.0 15.0 0.00 0.44 0.00 84 1009.6
20260507013055 43 18 9.0 15.0 0.00 0.44 0.00 83 1009.3
20260507011551 43 41 9.0 16.0 0.00 0.44 0.00 81 1009.2
20260507004549 43 51 5.0 12.0 0.00 0.44 0.00 80 1009.0
20260507003046 43 42 5.0 11.0 0.00 0.44 0.00 80 1009.3
20260507001550 43 35 5.0 10.0 0.00 0.44 0.00 80 1009.2
20260507000044 42 34 3.0 9.0 0.00 0.44 0.00 81 1009.2
20260506234540 43 42 4.0 11.0 0.00 0.44 0.00 82 1008.7
20260506233038 43 44 5.0 14.0 0.00 0.44 0.00 81 1008.8
20260506231536 43 94 5.0 14.0 0.00 0.44 0.00 80 1008.7
20260506230036 43 34 5.0 12.0 0.00 0.44 0.00 80 1008.7
20260506224535 43 40 9.0 18.0 0.00 0.44 0.00 80 1008.8
20260506223031 43 41 7.0 12.0 0.00 0.44 0.00 80 1008.5
20260506221527 43 66 4.0 12.0 0.00 0.44 0.00 80 1008.8
20260506220029 43 5 5.0 10.0 0.00 0.44 0.00 80 1008.7
20260506214521 43 53 5.0 12.0 0.00 0.44 0.44 80 1008.7
20260506213019 43 54 3.0 12.0 0.00 0.44 0.44 79 1008.5
20260506211517 43 65 8.0 17.0 0.00 0.44 0.44 79 1008.1
20260506210018 43 44 10.0 19.0 0.00 0.44 0.44 78 1007.9
20260506204516 43 61 5.0 15.0 0.00 0.44 0.44 78 1008.1
20260506203012 43 54 7.0 12.0 0.00 0.44 0.44 79 1008.0
20260506201511 43 62 7.0 15.0 0.00 0.44 0.44 80 1008.0
20260506200010 43 36 7.0 11.0 0.00 0.44 0.44 80 1007.8
20260506194507 43 40 6.0 15.0 0.00 0.44 0.44 80 1007.9
20260506193006 43 50 5.0 12.0 0.00 0.44 0.44 80 1008.0
20260506191505 43 36 4.0 8.0 0.00 0.44 0.44 80 1007.9
20260506190058 44 28 5.0 13.0 0.00 0.44 0.44 81 1007.6
20260506184602 44 49 4.0 10.0 0.00 0.44 0.44 81 1007.6
20260506183055 44 39 5.0 10.0 0.00 0.44 0.44 81 1007.5
20260506181551 45 57 5.0 16.0 0.00 0.44 0.44 82 1007.0
20260506180048 46 31 5.0 15.0 0.00 0.44 0.44 80 1006.8
20260506174545 47 47 11.0 16.0 0.00 0.44 0.44 78 1006.7
20260506173059 47 30 5.0 11.0 0.00 0.44 0.44 77 1006.6
20260506171552 48 14 4.0 12.0 0.00 0.44 0.44 77 1006.6
20260506170041 48 13 5.0 14.0 0.00 0.44 0.44 74 1006.5
20260506164541 48 55 9.0 13.0 0.00 0.44 0.44 73 1006.3
20260506163053 49 36 6.0 13.0 0.00 0.44 0.44 70 1006.1
20260506161543 49 41 2.0 5.0 0.00 0.44 0.44 69 1006.1
20260506160039 49 11 3.0 6.0 0.00 0.44 0.44 68 1006.0
20260506154540 49 333 3.0 9.0 0.00 0.44 0.44 67 1006.1
20260506153041 50 22 5.0 11.0 0.00 0.44 0.44 64 1006.0
20260506151538 50 345 1.0 6.0 0.00 0.44 0.44 60 1005.9
20260506150036 49 48 4.0 11.0 0.00 0.44 0.44 59 1005.9
20260506144538 49 9 4.0 9.0 0.00 0.44 0.44 57 1005.7
20260506143035 49 347 7.0 13.0 0.00 0.44 0.44 56 1005.7
20260506141533 49 19 4.0 10.0 0.01 0.44 0.44 54 1005.7
20260506140038 49 26 4.0 9.0 0.01 0.44 0.44 55 1005.8
20260506134529 49 46 5.0 12.0 0.01 0.44 0.44 55 1005.8
20260506133026 48 53 3.0 11.0 0.02 0.44 0.44 55 1005.9
20260506131522 48 53 5.0 12.0 0.02 0.43 0.43 55 1005.8
20260506130021 48 17 6.0 10.0 0.02 0.43 0.43 54 1005.8
20260506124520 48 34 4.0 10.0 0.02 0.43 0.43 54 1005.7
20260506123019 47 38 4.0 12.0 0.02 0.43 0.43 55 1005.6
20260506121518 47 30 5.0 11.0 0.02 0.42 0.42 55 1005.3
20260506120017 47 46 7.0 12.0 0.03 0.42 0.42 55 1005.1
20260506114515 47 26 6.0 14.0 0.03 0.41 0.41 56 1005.1
20260506113016 47 24 7.0 15.0 0.03 0.40 0.40 55 1005.0
20260506111512 48 37 7.0 13.0 0.04 0.39 0.39 55 1004.9
20260506110010 48 37 8.0 17.0 0.04 0.39 0.39 55 1004.9
20260506104508 48 30 5.0 9.0 0.05 0.38 0.38 54 1004.7
20260506103007 48 11 4.0 11.0 0.05 0.37 0.37 54 1004.9
20260506101506 48 34 5.0 11.0 0.05 0.35 0.35 54 1004.9
20260506100005 48 5 5.0 11.0 0.06 0.35 0.35 55 1004.8
20260506094606 48 57 6.0 13.0 0.04 0.33 0.33 55 1004.7
20260506093010 48 52 6.0 13.0 0.03 0.32 0.32 54 1004.8
20260506091501 48 27 7.0 13.0 0.02 0.31 0.31 54 1004.5
20260506090002 48 11 6.0 17.0 0.02 0.28 0.28 55 1004.4
20260506084604 48 38 8.0 14.0 0.02 0.31 0.28 55 1004.4
20260506083100 49 33 10.0 16.0 0.03 0.31 0.28 54 1004.4
20260506081558 49 32 6.0 14.0 0.04 0.31 0.28 54 1004.5
20260506080110 49 36 8.0 13.0 0.03 0.30 0.28 54 1004.5
20260506073102 49 15 6.0 15.0 0.05 0.32 0.26 55 1004.4
20260506071551 49 32 9.0 18.0 0.06 0.31 0.25 55 1004.1
20260506061556 48 43 6.0 13.0 0.09 0.32 0.20 57 1004.4